Nos coordonnées

Nous sommes à votre écoute du lundi au dimanche de 10:00 à 19:00 au :

+32 (0)495 19 89 53

 

Adresse d'exploitation Adresse de facturation
Chaussée de Nivelles, 629
6230 Buzet
Belgique
Kouter 107/2
9000 Gent
Belgique

contact @ blackhelicopters.be (n'oubliez pas de supprimer les espaces)


Nous retrouver

Il est très fortement conseillé de nous appeler avant de venir sur le terrain, nous pouvons être en mission ou en vol!

 

La carte ci-dessous est interactive, cherchez vos itinéraires, déplacez la pour vous retrouver.

News

Votre panier

Le panier est vide

Météo Charleroi

METAR
EBCI 301620Z AUTO 06012KT 020V090 CAVOK 23/04 Q1020 =
EBCI 301110Z 3012/3118 07010KT CAVOK
TAF
EBCI 301110Z 3012/3118 07010KT CAVOK =
Lever / Coucher : 03:38 / 19:43 UTC (Buzet 2020-05-30)